Istanbul, Turkey

11:39 PM EEST on August 26, 2016 (GMT +0300)
Ataturk

Weather History for LTBA - September, 2011

Change the Weather History Date:

Wednesday, September 28, 2011

  Actual Average Record
Temperature  
Mean Temperature 70 °F -  
Max Temperature 77 °F 67 °F 84 °F (2004)
Min Temperature 64 °F 55 °F 53 °F (1997)
Cooling Degree Days 6    
Growing Degree Days 20 (Base 50)    
Moisture  
Dew Point 54 °F    
Average Humidity 57    
Maximum Humidity 68    
Minimum Humidity 34    
Precipitation  
Precipitation 0.00 in - - ()
Sea Level Pressure  
Sea Level Pressure 30.16 in    
Wind  
Wind Speed 10 mph ()    
Max Wind Speed 20 mph    
Max Gust Speed 30 mph    
Visibility 6.2 miles    
Events      
Averages and records for this station are not official NWS values.
T = Trace of Precipitation, MM = Missing Value Source: Averaged Metar Reports

Daily Weather History Graph

Daily Weather History Graph

Search for Another Location

Airport or City:

Trip Planner

Search our weather history database for the weather conditions in past years. The results will help you decide how hot, cold, wet, or windy it might be!

Date:

Astronomy

Sep. 28, 2011 Rise Set
Actual Time 6:57 AM EEST 6:52 PM EEST
Civil Twilight 6:30 AM EEST 7:20 PM EEST
Nautical Twilight 5:58 AM EEST 7:51 PM EEST
Astronomical Twilight 5:25 AM EEST 8:24 PM EEST
Moon 8:03 AM EEST (9/28) 7:07 PM EEST (9/28)
Length of Visible Light 12h 49m
Length of Day
11h 55m
New Moon, 1% of the Moon is Illuminated
Sep 28
New Moon
Oct 4
First Quarter
Oct 12
Full
Oct 20
Last Quarter
Oct 26
New

Hourly Weather History & Observations

Time (EEST) Temp. Dew Point Humidity Pressure Visibility Wind Dir Wind Speed Gust Speed Precip Events Conditions
12:20 AM 69.8 °F 51.8 °F 53% 30.21 in 6.2 mi ENE 9.2 mph - N/A   Scattered Clouds
12:50 AM 66.2 °F 51.8 °F 60% 30.21 in 6.2 mi ENE 9.2 mph - N/A   Partly Cloudy
1:20 AM 66.2 °F 51.8 °F 60% 30.21 in 6.2 mi ENE 9.2 mph - N/A   Partly Cloudy
1:50 AM 66.2 °F 51.8 °F 60% 30.21 in 6.2 mi ENE 6.9 mph - N/A   Scattered Clouds
2:20 AM 66.2 °F 51.8 °F 60% 30.21 in 6.2 mi ENE 5.8 mph - N/A   Scattered Clouds
2:50 AM 66.2 °F 51.8 °F 60% 30.21 in 6.2 mi NE 6.9 mph - N/A   Scattered Clouds
3:00 AM 65 °F 52 °F 53% 30.21 in 6 mi NE 6.9 mph - -   Partly Cloudy
3:20 AM 66.2 °F 51.8 °F 60% 30.18 in 6.2 mi NE 6.9 mph - N/A   Partly Cloudy
3:50 AM 66.2 °F 51.8 °F 60% 30.18 in 6.2 mi NE 6.9 mph - N/A   Scattered Clouds
4:20 AM 66.2 °F 51.8 °F 60% 30.18 in 6.2 mi NNE 6.9 mph - N/A   Scattered Clouds
4:50 AM 64.4 °F 51.8 °F 64% 30.18 in 6.2 mi North 5.8 mph - N/A   Scattered Clouds
5:20 AM 64.4 °F 51.8 °F 64% 30.18 in 6.2 mi North 6.9 mph - N/A   Scattered Clouds
5:50 AM 64.4 °F 53.6 °F 68% 30.18 in 6.2 mi North 6.9 mph - N/A   Scattered Clouds
6:20 AM 66.2 °F 53.6 °F 64% 30.18 in 6.2 mi NNE 5.8 mph - N/A   Scattered Clouds
6:50 AM 66.2 °F 53.6 °F 64% 30.18 in 6.2 mi NNE 5.8 mph - N/A   Scattered Clouds
7:20 AM 66.2 °F 53.6 °F 64% 30.18 in 6.2 mi NNE 6.9 mph - N/A   Scattered Clouds
7:50 AM 68.0 °F 53.6 °F 60% 30.18 in 6.2 mi NNE 6.9 mph - N/A   Scattered Clouds
8:20 AM 68.0 °F 55.4 °F 64% 30.15 in 6.2 mi Variable 8.1 mph - N/A   Partly Cloudy
8:50 AM 69.8 °F 55.4 °F 60% 30.18 in 6.2 mi Variable 9.2 mph - N/A   Partly Cloudy
9:00 AM 70 °F 56 °F 51% 30.18 in 6 mi NE 9.2 mph - -   Scattered Clouds
9:20 AM 71.6 °F 57.2 °F 60% 30.18 in 6.2 mi NE 9.2 mph - N/A   Scattered Clouds
9:50 AM 71.6 °F 55.4 °F 57% 30.18 in 6.2 mi NE 11.5 mph - N/A   Scattered Clouds
10:20 AM 71.6 °F 55.4 °F 57% 30.18 in 6.2 mi NE 13.8 mph - N/A   Scattered Clouds
10:50 AM 71.6 °F 55.4 °F 57% 30.18 in 6.2 mi NE 11.5 mph - N/A   Scattered Clouds
11:20 AM 75.2 °F 55.4 °F 50% 30.15 in 6.2 mi Variable 13.8 mph - N/A   Scattered Clouds
11:50 AM 71.6 °F 53.6 °F 53% 30.15 in 6.2 mi NE 13.8 mph - N/A   Scattered Clouds
12:20 PM 73.4 °F 53.6 °F 50% 30.15 in 6.2 mi NE 17.3 mph - N/A   Scattered Clouds
12:50 PM 75.2 °F 51.8 °F 44% 30.15 in 6.2 mi NE 15.0 mph - N/A   Scattered Clouds
1:20 PM 75.2 °F 51.8 °F 44% 30.15 in 6.2 mi NNE 13.8 mph - N/A   Scattered Clouds
1:50 PM 75.2 °F 51.8 °F 44% 30.15 in 6.2 mi NNE 15.0 mph - N/A   Scattered Clouds
2:20 PM 77.0 °F 53.6 °F 44% 30.15 in 6.2 mi NE 15.0 mph 27.6 mph N/A   Scattered Clouds
2:50 PM 75.2 °F 53.6 °F 47% 30.15 in 6.2 mi NE 13.8 mph - N/A   Scattered Clouds
3:00 PM 76 °F 53 °F 34% 30.15 in 6 mi NE 13.8 mph - -   Partly Cloudy
3:20 PM 75.2 °F 55.4 °F 50% 30.12 in 6.2 mi NNE 17.3 mph - N/A   Scattered Clouds
3:50 PM 73.4 °F 57.2 °F 57% 30.12 in 6.2 mi NNE 18.4 mph 29.9 mph N/A   Scattered Clouds
4:20 PM 73.4 °F 57.2 °F 57% 30.12 in 6.2 mi NNE 19.6 mph - N/A   Scattered Clouds
4:50 PM 71.6 °F 57.2 °F 60% 30.12 in 6.2 mi NNE 19.6 mph - N/A   Scattered Clouds
5:20 PM 73.4 °F 55.4 °F 53% 30.12 in - NNE 18.4 mph - N/A   Clear
5:50 PM 71.6 °F 55.4 °F 57% 30.12 in 6.2 mi NE 18.4 mph - N/A   Scattered Clouds
6:20 PM 71.6 °F 55.4 °F 57% 30.12 in 6.2 mi NNE 18.4 mph - N/A   Scattered Clouds
6:50 PM 69.8 °F 55.4 °F 60% 30.12 in 6.2 mi NNE 15.0 mph - N/A   Scattered Clouds
7:20 PM 69.8 °F 55.4 °F 60% 30.12 in 6.2 mi NE 15.0 mph - N/A   Scattered Clouds
7:50 PM 69.8 °F 53.6 °F 56% 30.12 in 6.2 mi NE 16.1 mph - N/A   Scattered Clouds
8:20 PM 69.8 °F 53.6 °F 56% 30.15 in 6.2 mi NE 15.0 mph - N/A   Scattered Clouds
8:50 PM 69.8 °F 53.6 °F 56% 30.15 in 6.2 mi NE 11.5 mph - N/A   Scattered Clouds
9:00 PM 70 °F 54 °F 47% 30.16 in 6 mi NE 11.5 mph - -   Partly Cloudy
9:50 PM 69.8 °F 53.6 °F 56% 30.15 in 6.2 mi NE 12.7 mph - N/A   Scattered Clouds
10:20 PM 68.0 °F 53.6 °F 60% 30.15 in 6.2 mi NE 12.7 mph - N/A   Scattered Clouds
10:50 PM 68.0 °F 55.4 °F 64% 30.15 in 6.2 mi NE 10.4 mph - N/A   Scattered Clouds
11:20 PM 68.0 °F 55.4 °F 64% 30.15 in 6.2 mi NE 9.2 mph - N/A   Scattered Clouds
11:50 PM 68.0 °F 55.4 °F 64% 30.15 in 6.2 mi NE 9.2 mph - N/A   Scattered Clouds